Date,TemperatureHighF,TemperatureAvgF,TemperatureLowF,DewpointHighF,DewpointAvgF,DewpointLowF,HumidityHigh,HumidityAvg,HumidityLow,PressureMaxIn,PressureMinIn,WindSpeedMaxMPH,WindSpeedAvgMPH,GustSpeedMaxMPH,PrecipitationSumIn
2014-1-1,65,56,48,56,42,28,85,61,35,30.12,30.01,12,7,28,0.00
2014-1-2,73,66,57,51,36,23,53,34,25,30.06,29.96,11,6,16,0.00
2014-1-3,62,55,51,58,49,26,100,83,33,30.00,29.90,8,4,12,0.00
2014-1-15,82,77,73,35,27,21,23,16,11,30.22,30.10,6,4,27,0.00
2014-1-16,89,89,89,-2,-2,-2,3,3,3,30.02,30.01,10,9,29,0.00
2014-1-17,88,77,65,43,21,10,34,15,7,30.09,30.03,9,6,18,0.00
2014-1-18,74,66,58,45,33,13,44,31,16,30.08,29.99,8,4,11,0.00
2014-1-19,74,66,57,42,33,24,44,29,23,30.09,30.02,5,3,9,0.00
2014-1-20,72,66,56,52,39,30,57,39,25,30.14,30.06,11,6,19,0.00
2014-1-21,72,63,56,48,33,17,59,35,17,30.14,30.02,8,3,16,0.00
2014-1-22,71,62,50,58,42,20,100,51,17,30.02,29.87,6,4,16,0.00
2014-1-23,64,54,48,57,46,34,100,76,57,30.06,29.87,9,6,16,0.00
2014-1-24,67,60,55,57,52,47,100,74,60,30.17,30.06,7,4,17,0.00
2014-1-25,69,61,57,56,40,30,64,47,29,30.17,30.08,7,4,15,0.00
2014-1-26,65,61,54,56,48,32,78,62,37,30.12,30.00,8,5,19,0.00
2014-1-27,69,58,52,58,49,41,100,73,55,30.08,29.99,10,7,17,0.00
2014-2-2,64,55,47,45,41,28,88,61,31,30.05,29.94,12,8,20,0.00
2014-2-3,64,54,44,46,40,36,74,62,46,29.96,29.88,15,8,25,0.00
2014-2-4,64,54,45,45,38,32,66,56,45,30.06,29.96,11,8,18,0.00
2014-2-5,66,54,47,46,40,34,73,59,47,30.10,30.01,11,8,19,0.00
2014-2-6,64,54,50,54,49,39,100,84,56,30.05,29.94,7,4,12,0.00
2014-2-7,65,56,50,54,51,47,100,84,61,30.19,30.02,8,5,14,0.00
2014-2-8,64,57,52,60,54,49,100,90,74,30.26,30.17,10,6,16,0.00
2014-2-9,66,58,54,59,55,51,100,91,68,30.21,30.08,8,4,14,0.00
2014-2-10,69,62,51,58,51,38,100,71,36,30.12,29.98,16,7,31,0.00
2014-2-11,64,57,50,60,52,43,100,82,68,30.08,30.00,7,4,12,0.00
2014-2-12,74,62,52,53,44,31,86,52,30,30.12,30.00,13,6,22,0.00
2014-2-13,72,62,54,56,45,27,81,54,32,30.06,29.94,13,6,20,0.00
2014-2-14,71,61,51,58,49,28,100,66,38,30.03,29.91,17,7,26,0.00
2014-2-15,70,61,54,56,50,32,96,68,33,30.01,29.93,12,6,19,0.00
2014-2-16,71,60,52,58,48,35,84,64,49,30.05,29.94,23,6,34,0.00
2014-2-17,66,57,51,56,49,42,97,76,61,30.06,29.96,12,8,28,0.00
2014-2-18,65,56,49,57,50,46,100,83,64,30.04,29.94,10,6,19,0.00
2014-2-19,66,58,52,56,51,41,100,81,54,29.99,29.87,12,6,18,0.00
2014-2-20,75,64,54,56,43,32,92,50,21,30.00,29.90,16,7,39,0.00
2014-2-21,68,59,50,59,52,31,100,80,29,29.94,29.85,6,4,14,0.00
2014-2-22,66,59,50,55,45,31,93,60,38,29.91,29.83,11,7,17,0.00
2014-2-23,66,58,48,56,47,32,96,69,44,29.98,29.89,11,5,17,0.00
2014-2-24,64,56,47,56,48,38,100,76,54,30.02,29.91,10,7,16,0.00
2014-3-9,84,76,63,41,33,20,45,23,14,30.12,30.07,8,6,18,0.00
2014-3-10,77,66,57,55,47,34,71,51,21,30.06,29.95,21,10,30,0.00
2014-3-11,70,61,53,59,40,-100,83,64,41,29.98,29.90,7,-58,13,6.16
2014-3-12,76,65,55,58,46,20,91,61,13,29.96,29.89,13,7,33,0.00
2014-3-13,67,59,51,57,52,47,91,78,59,29.99,29.90,23,8,23,0.00
2014-3-14,70,59,49,58,51,44,90,75,60,30.09,29.99,12,7,22,0.00
2014-3-15,75,62,50,59,50,33,83,67,22,30.18,30.08,18,8,29,0.00
2014-3-17,70,63,55,56,50,35,77,63,39,30.03,29.74,17,8,29,0.00
2014-3-18,71,61,51,57,52,42,90,74,43,29.88,29.78,13,7,22,0.00
2014-3-19,70,60,51,59,51,36,87,73,42,30.04,29.91,12,6,18,0.00
2014-3-20,67,59,52,57,50,-100,94,77,66,30.04,29.91,12,7,18,0.00
2014-3-21,68,58,52,54,49,-100,86,74,54,30.00,29.93,8,5,14,0.00
2014-3-22,64,58,52,53,51,47,86,77,67,30.07,29.98,10,5,15,0.00
2014-3-23,66,58,50,55,51,46,88,78,65,30.12,29.99,15,8,25,0.00